| time (UTC) | temp C | wind direction | speed KPH | gust KPH | rain 1hr cm | rain 24hr cm | rain mn cm | humidity % | barometer mb |
| 20260831014207 | 21 | 98 | 6.4 | 11.3 | 0.00 | 0.00 | 0.00 | 44 | 1016.5 |
| 20260831013706 | 21 | 21 | 6.4 | 11.3 | 0.00 | 0.00 | 0.00 | 48 | 1016.5 |
| 20260831013206 | 21 | 20 | 6.4 | 11.3 | 0.00 | 0.00 | 0.00 | 48 | 1016.5 |
| 20260831012706 | 20 | 9 | 6.4 | 9.7 | 0.00 | 0.00 | 0.00 | 48 | 1016.5 |
| 20260831012210 | 20 | 359 | 8.0 | 11.3 | 0.00 | 0.00 | 0.00 | 49 | 1016.6 |
| 20260831011707 | 20 | 347 | 8.0 | 11.3 | 0.00 | 0.00 | 0.00 | 51 | 1016.6 |
| 20260831011204 | 20 | 352 | 6.4 | 9.7 | 0.00 | 0.00 | 0.00 | 53 | 1016.6 |
| 20260831010706 | 20 | 4 | 8.0 | 11.3 | 0.00 | 0.00 | 0.00 | 49 | 1016.7 |
| 20260831010201 | 20 | 359 | 8.0 | 11.3 | 0.00 | 0.00 | 0.00 | 49 | 1016.7 |
| 20260831010030 | 20 | 9 | 8.0 | 9.7 | 0.00 | 0.00 | 0.00 | 49 | 1016.7 |
| 20260831005203 | 20 | 359 | 8.0 | 9.7 | 0.00 | 0.00 | 0.00 | 47 | 1016.9 |
| 20260831004700 | 20 | 15 | 9.7 | 14.5 | 0.00 | 0.00 | 0.00 | 47 | 1016.9 |
| 20260831004157 | 20 | 9 | 9.7 | 14.5 | 0.00 | 0.00 | 0.00 | 47 | 1016.9 |
| 20260831003647 | 20 | 17 | 8.0 | 12.9 | 0.00 | 0.00 | 0.00 | 47 | 1017.0 |
| 20260831003445 | 21 | 313 | 9.7 | 11.3 | 0.00 | 0.00 | 0.00 | 49 | 1017.0 |
| 20260831002632 | 21 | 17 | 9.7 | 11.3 | 0.00 | 0.00 | 0.00 | 45 | 1017.1 |
| 20260831002131 | 21 | 4 | 8.0 | 11.3 | 0.00 | 0.00 | 0.00 | 47 | 1017.1 |
| 20260831001623 | 21 | 9 | 6.4 | 11.3 | 0.00 | 0.00 | 0.00 | 47 | 1017.1 |
| 20260831001120 | 21 | 351 | 4.8 | 9.7 | 0.00 | 0.00 | 0.00 | 49 | 1017.2 |
| 20260831000605 | 21 | 337 | 4.8 | 6.4 | 0.00 | 0.00 | 0.00 | 46 | 1017.2 |
| 20260831000105 | 21 | 338 | 4.8 | 9.7 | 0.00 | 0.00 | 0.00 | 48 | 1017.2 |
| 20260830235559 | 20 | 4 | 6.4 | 9.7 | 0.00 | 0.00 | 0.00 | 49 | 1017.4 |
| 20260830235054 | 20 | 9 | 8.0 | 11.3 | 0.00 | 0.00 | 0.00 | 51 | 1017.4 |
| 20260830234901 | 20 | 15 | 9.7 | 11.3 | 0.00 | 0.00 | 0.00 | 48 | 1017.4 |
| 20260830234353 | 20 | 13 | 9.7 | 11.3 | 0.00 | 0.00 | 0.00 | 51 | 1017.5 |
| 20260830233546 | 20 | 23 | 8.0 | 11.3 | 0.00 | 0.00 | 0.00 | 47 | 1017.5 |
| 20260830233043 | 20 | 27 | 8.0 | 9.7 | 0.00 | 0.00 | 0.00 | 48 | 1017.5 |
| 20260830232541 | 20 | 359 | 8.0 | 11.3 | 0.00 | 0.00 | 0.00 | 50 | 1017.6 |
| 20260830232335 | 20 | 21 | 8.0 | 11.3 | 0.00 | 0.00 | 0.00 | 53 | 1017.6 |
| 20260830231837 | 20 | 9 | 9.7 | 11.3 | 0.00 | 0.00 | 0.00 | 49 | 1017.6 |
| 20260830231038 | 20 | 19 | 9.7 | 14.5 | 0.00 | 0.00 | 0.00 | 48 | 1017.6 |
| 20260830230902 | 20 | 17 | 9.7 | 14.5 | 0.00 | 0.00 | 0.00 | 51 | 1017.6 |
| 20260830230042 | 20 | 28 | 11.3 | 16.1 | 0.00 | 0.00 | 0.00 | 50 | 1017.6 |
| 20260830225841 | 20 | 28 | 12.9 | 16.1 | 0.00 | 0.00 | 0.00 | 55 | 1017.9 |
| 20260830225038 | 19 | 9 | 12.9 | 16.1 | 0.00 | 0.00 | 0.00 | 51 | 1017.9 |
| 20260830224536 | 19 | 16 | 12.9 | 16.1 | 0.00 | 0.00 | 0.00 | 51 | 1017.9 |
| 20260830224037 | 19 | 17 | 11.3 | 16.1 | 0.00 | 0.00 | 0.00 | 54 | 1018.1 |
| 20260830223630 | 20 | 21 | 9.7 | 14.5 | 0.00 | 0.00 | 0.00 | 55 | 1018.1 |
| 20260830222532 | 19 | 339 | 9.7 | 14.5 | 0.00 | 0.00 | 0.00 | 57 | 1018.1 |
| 20260830222033 | 19 | 18 | 11.3 | 14.5 | 0.00 | 0.00 | 0.00 | 53 | 1018.1 |
| 20260830221530 | 19 | 14 | 12.9 | 16.1 | 0.00 | 0.00 | 0.00 | 52 | 1018.1 |
| 20260830221337 | 19 | 9 | 14.5 | 17.7 | 0.00 | 0.00 | 0.00 | 51 | 1018.2 |
| 20260830220528 | 18 | 9 | 16.1 | 17.7 | 0.00 | 0.00 | 0.00 | 52 | 1018.2 |
| 20260830220017 | 18 | 15 | 14.5 | 19.3 | 0.00 | 0.00 | 0.00 | 51 | 1018.2 |
| 20260830215516 | 19 | 14 | 12.9 | 19.3 | 0.00 | 0.00 | 0.00 | 56 | 1018.6 |
| 20260830215015 | 19 | 9 | 14.5 | 17.7 | 0.00 | 0.00 | 0.00 | 56 | 1018.6 |
| 20260830214823 | 18 | 13 | 16.1 | 24.1 | 0.00 | 0.00 | 0.00 | 54 | 1018.6 |
| 20260830214253 | 18 | 28 | 16.1 | 24.1 | 0.00 | 0.00 | 0.00 | 55 | 1018.7 |
| 20260830213606 | 18 | 359 | 16.1 | 20.9 | 0.00 | 0.00 | 0.00 | 56 | 1018.7 |
| 20260830212513 | 18 | 4 | 14.5 | 17.7 | 0.00 | 0.00 | 0.00 | 61 | 1018.8 |
| 20260830212011 | 18 | 9 | 14.5 | 17.7 | 0.00 | 0.00 | 0.00 | 57 | 1018.8 |
| 20260830211513 | 18 | 9 | 12.9 | 17.7 | 0.00 | 0.00 | 0.00 | 58 | 1018.8 |
| 20260830211012 | 18 | 9 | 9.7 | 17.7 | 0.00 | 0.00 | 0.00 | 58 | 1018.7 |
| 20260830210509 | 19 | 359 | 6.4 | 14.5 | 0.00 | 0.00 | 0.00 | 57 | 1018.7 |
| 20260830205005 | 19 | 21 | 6.4 | 14.5 | 0.00 | 0.00 | 0.00 | 57 | 1018.8 |
| 20260830204506 | 18 | 317 | 6.4 | 14.5 | 0.00 | 0.00 | 0.00 | 54 | 1018.8 |
| 20260830204012 | 18 | 323 | 6.4 | 11.3 | 0.00 | 0.00 | 0.00 | 59 | 1019.1 |
| 20260830203507 | 18 | 353 | 8.0 | 11.3 | 0.00 | 0.00 | 0.00 | 61 | 1019.1 |
| 20260830203006 | 18 | 342 | 6.4 | 9.7 | 0.00 | 0.00 | 0.00 | 59 | 1019.1 |
| 20260830202820 | 18 | 13 | 8.0 | 11.3 | 0.00 | 0.00 | 0.00 | 61 | 1019.1 |
| 20260830202337 | 18 | 9 | 8.0 | 11.3 | 0.00 | 0.00 | 0.00 | 62 | 1019.1 |
| 20260830201817 | 17 | 13 | 9.7 | 11.3 | 0.00 | 0.00 | 0.00 | 60 | 1019.1 |
| 20260830201009 | 17 | 9 | 9.7 | 12.9 | 0.00 | 0.00 | 0.00 | 62 | 1019.1 |
| 20260830200457 | 17 | 13 | 9.7 | 16.1 | 0.00 | 0.00 | 0.00 | 63 | 1019.1 |
| 20260830195948 | 17 | 32 | 9.7 | 16.1 | 0.00 | 0.00 | 0.00 | 65 | 1019.1 |
| 20260830195742 | 17 | 16 | 9.7 | 16.1 | 0.00 | 0.00 | 0.00 | 68 | 1019.2 |
| 20260830194944 | 17 | 4 | 11.3 | 17.7 | 0.00 | 0.00 | 0.00 | 67 | 1019.2 |
| 20260830194448 | 16 | 344 | 14.5 | 17.7 | 0.00 | 0.00 | 0.00 | 68 | 1019.2 |
| 20260830193939 | 16 | 9 | 14.5 | 17.7 | 0.00 | 0.00 | 0.00 | 67 | 1019.5 |
| 20260830193439 | 16 | 16 | 14.5 | 19.3 | 0.00 | 0.00 | 0.00 | 68 | 1019.5 |
| 20260830192937 | 16 | 26 | 16.1 | 19.3 | 0.00 | 0.00 | 0.00 | 67 | 1019.5 |
| 20260830192436 | 16 | 17 | 16.1 | 22.5 | 0.00 | 0.00 | 0.00 | 70 | 1019.6 |
| 20260830191935 | 16 | 9 | 16.1 | 22.5 | 0.00 | 0.00 | 0.00 | 71 | 1019.6 |
| 20260830191438 | 16 | 9 | 12.9 | 20.9 | 0.00 | 0.00 | 0.00 | 71 | 1019.6 |
| 20260830190938 | 16 | 359 | 11.3 | 17.7 | 0.00 | 0.00 | 0.00 | 70 | 1019.6 |
| 20260830190438 | 16 | 9 | 12.9 | 17.7 | 0.00 | 0.00 | 0.00 | 72 | 1019.6 |
| 20260830185936 | 16 | 352 | 14.5 | 17.7 | 0.00 | 0.00 | 0.00 | 71 | 1019.6 |
| 20260830185437 | 16 | 38 | 12.9 | 19.3 | 0.00 | 0.00 | 0.00 | 71 | 1019.6 |
| 20260830185247 | 16 | 352 | 11.3 | 19.3 | 0.00 | 0.00 | 0.00 | 71 | 1019.6 |
| 20260830184433 | 16 | 350 | 9.7 | 16.1 | 0.00 | 0.00 | 0.00 | 70 | 1019.6 |
| 20260830183932 | 16 | 9 | 8.0 | 16.1 | 0.00 | 0.00 | 0.00 | 71 | 1019.6 |
| 20260830183431 | 16 | 344 | 8.0 | 12.9 | 0.00 | 0.00 | 0.00 | 69 | 1019.6 |
| 20260830182932 | 16 | 345 | 8.0 | 12.9 | 0.00 | 0.00 | 0.00 | 71 | 1019.6 |
| 20260830182426 | 16 | 354 | 6.4 | 12.9 | 0.00 | 0.00 | 0.00 | 69 | 1019.6 |
| 20260830181922 | 16 | 102 | 4.8 | 12.9 | 0.00 | 0.00 | 0.00 | 71 | 1019.6 |
| 20260830181410 | 16 | 359 | 6.4 | 12.9 | 0.00 | 0.00 | 0.00 | 69 | 1019.6 |
| 20260830180906 | 16 | 46 | 6.4 | 12.9 | 0.00 | 0.00 | 0.00 | 72 | 1019.6 |
| 20260830180404 | 16 | 71 | 6.4 | 9.7 | 0.00 | 0.00 | 0.00 | 72 | 1019.6 |
| 20260830175900 | 16 | 9 | 6.4 | 9.7 | 0.00 | 0.00 | 0.00 | 72 | 1019.6 |
| 20260830175352 | 16 | 348 | 6.4 | 9.7 | 0.00 | 0.00 | 0.00 | 71 | 1019.7 |
| 20260830174952 | 16 | 335 | 4.8 | 9.7 | 0.00 | 0.00 | 0.00 | 70 | 1019.7 |
| 20260830173849 | 16 | 359 | 3.2 | 6.4 | 0.00 | 0.00 | 0.00 | 69 | 1019.6 |
| 20260830173648 | 16 | 230 | 3.2 | 6.4 | 0.00 | 0.00 | 0.00 | 68 | 1019.6 |
| 20260830173142 | 16 | 146 | 3.2 | 6.4 | 0.00 | 0.00 | 0.00 | 68 | 1019.6 |
| 20260830172338 | 16 | 187 | 1.6 | 6.4 | 0.00 | 0.00 | 0.00 | 68 | 1019.6 |
| 20260830171835 | 16 | 122 | 1.6 | 4.8 | 0.00 | 0.00 | 0.00 | 69 | 1019.6 |
| 20260830171335 | 16 | 165 | 3.2 | 6.4 | 0.00 | 0.00 | 0.00 | 70 | 1019.6 |
| 20260830170831 | 15 | 4 | 1.6 | 6.4 | 0.00 | 0.00 | 0.00 | 72 | 1019.7 |
| 20260830170329 | 15 | 193 | 1.6 | 4.8 | 0.00 | 0.00 | 0.00 | 73 | 1019.7 |
| 20260830165830 | 15 | 270 | 1.6 | 4.8 | 0.00 | 0.00 | 0.00 | 74 | 1019.7 |
| 20260830165329 | 15 | 261 | 3.2 | 8.0 | 0.00 | 0.00 | 0.00 | 75 | 1019.6 |
| 20260830164829 | 15 | 227 | 1.6 | 8.0 | 0.00 | 0.00 | 0.00 | 74 | 1019.6 |
| 20260830164555 | 15 | 219 | 1.6 | 4.8 | 0.00 | 0.00 | 0.00 | 75 | 1019.6 |
| 20260830164332 | 15 | 219 | 1.6 | 4.8 | 0.00 | 0.00 | 0.00 | 75 | 1019.6 |
| 20260830163828 | 14 | 147 | 1.6 | 4.8 | 0.00 | 0.00 | 0.00 | 76 | 1019.7 |
| 20260830163330 | 14 | 173 | 1.6 | 3.2 | 0.00 | 0.00 | 0.00 | 77 | 1019.7 |
| 20260830162829 | 13 | 270 | 1.6 | 4.8 | 0.00 | 0.00 | 0.00 | 79 | 1019.7 |
| 20260830162330 | 13 | 219 | 3.2 | 4.8 | 0.00 | 0.00 | 0.00 | 79 | 1019.7 |
| 20260830161830 | 13 | 242 | 3.2 | 6.4 | 0.00 | 0.00 | 0.00 | 80 | 1019.7 |
| 20260830161336 | 13 | 222 | 3.2 | 6.4 | 0.00 | 0.00 | 0.00 | 80 | 1019.7 |
| 20260830160828 | 13 | 246 | 3.2 | 6.4 | 0.00 | 0.00 | 0.00 | 81 | 1019.8 |
| 20260830160416 | 13 | 234 | 3.2 | 6.4 | 0.00 | 0.00 | 0.00 | 81 | 1019.8 |
| 20260830155307 | 13 | 233 | 3.2 | 8.0 | 0.00 | 0.00 | 0.00 | 81 | 1020.0 |
| 20260830154805 | 13 | 231 | 3.2 | 6.4 | 0.00 | 0.00 | 0.00 | 82 | 1020.0 |
| 20260830154607 | 13 | 242 | 4.8 | 8.0 | 0.00 | 0.00 | 0.00 | 83 | 1020.0 |
| 20260830153805 | 13 | 212 | 4.8 | 8.0 | 0.00 | 0.00 | 0.00 | 83 | 1020.0 |
| 20260830153301 | 13 | 220 | 4.8 | 8.0 | 0.00 | 0.00 | 0.00 | 84 | 1020.0 |
| 20260830152801 | 13 | 228 | 3.2 | 6.4 | 0.00 | 0.00 | 0.00 | 84 | 1020.0 |
| 20260830152305 | 12 | 248 | 4.8 | 6.4 | 0.00 | 0.00 | 0.00 | 84 | 1019.8 |
| 20260830151802 | 12 | 215 | 4.8 | 6.4 | 0.00 | 0.00 | 0.00 | 84 | 1019.8 |
| 20260830151305 | 12 | 217 | 3.2 | 6.4 | 0.00 | 0.00 | 0.00 | 84 | 1019.8 |
| 20260830150805 | 12 | 219 | 4.8 | 8.0 | 0.00 | 0.00 | 0.00 | 85 | 1019.7 |
| 20260830150308 | 12 | 184 | 4.8 | 8.0 | 0.00 | 0.00 | 0.00 | 85 | 1019.7 |
| 20260830150122 | 12 | 217 | 1.6 | 8.0 | 0.00 | 0.00 | 0.00 | 85 | 1019.7 |
| 20260830145348 | 12 | 198 | 1.6 | 4.8 | 0.00 | 0.00 | 0.00 | 85 | 1019.7 |
| 20260830144303 | 12 | 228 | 1.6 | 4.8 | 0.00 | 0.00 | 0.00 | 86 | 1019.7 |
| 20260830143801 | 12 | 217 | 3.2 | 6.4 | 0.00 | 0.00 | 0.00 | 86 | 1019.7 |
| 20260830143302 | 12 | 210 | 3.2 | 6.4 | 0.00 | 0.00 | 0.00 | 86 | 1019.7 |
| 20260830142807 | 12 | 254 | 3.2 | 6.4 | 0.00 | 0.00 | 0.00 | 86 | 1019.7 |
| 20260830142610 | 12 | 229 | 3.2 | 6.4 | 0.00 | 0.00 | 0.00 | 86 | 1019.5 |
| 20260830141807 | 12 | 265 | 3.2 | 6.4 | 0.00 | 0.00 | 0.00 | 86 | 1019.5 |
| 20260830141301 | 12 | 206 | 3.2 | 6.4 | 0.00 | 0.00 | 0.00 | 87 | 1019.5 |
| 20260830140801 | 12 | 248 | 3.2 | 6.4 | 0.00 | 0.00 | 0.00 | 87 | 1019.2 |
| 20260830140301 | 12 | 242 | 3.2 | 6.4 | 0.00 | 0.00 | 0.00 | 87 | 1019.2 |
| 20260830135802 | 12 | 241 | 3.2 | 6.4 | 0.00 | 0.00 | 0.00 | 87 | 1019.2 |
| 20260830135306 | 12 | 258 | 4.8 | 6.4 | 0.00 | 0.00 | 0.00 | 87 | 1019.1 |
| 20260830134807 | 12 | 259 | 4.8 | 6.4 | 0.00 | 0.00 | 0.00 | 87 | 1019.1 |
| 20260830134306 | 12 | 265 | 3.2 | 6.4 | 0.00 | 0.00 | 0.00 | 87 | 1019.1 |
| 20260830133811 | 12 | 259 | 3.2 | 6.4 | 0.00 | 0.00 | 0.00 | 87 | 1019.1 |
| 20260830133310 | 12 | 213 | 1.6 | 4.8 | 0.00 | 0.00 | 0.00 | 86 | 1019.1 |
| 20260830132805 | 12 | 247 | 1.6 | 4.8 | 0.00 | 0.00 | 0.00 | 86 | 1019.1 |
| 20260830132305 | 12 | 231 | 3.2 | 4.8 | 0.00 | 0.00 | 0.00 | 86 | 1019.1 |
| 20260830132107 | 12 | 187 | 3.2 | 6.4 | 0.00 | 0.00 | 0.00 | 87 | 1019.1 |
| 20260830131313 | 12 | 212 | 3.2 | 6.4 | 0.00 | 0.00 | 0.00 | 87 | 1019.1 |
| 20260830131116 | 12 | 240 | 3.2 | 6.4 | 0.00 | 0.00 | 0.00 | 87 | 1019.1 |
| 20260830130256 | 12 | 244 | 4.8 | 6.4 | 0.00 | 0.00 | 0.00 | 87 | 1019.1 |
| 20260830125745 | 12 | 255 | 4.8 | 8.0 | 0.00 | 0.00 | 0.00 | 87 | 1019.1 |
| 20260830125547 | 12 | 238 | 4.8 | 8.0 | 0.00 | 0.03 | 0.00 | 87 | 1019.1 |
| 20260830125110 | 12 | 235 | 4.8 | 8.0 | 0.00 | 0.03 | 0.00 | 86 | 1019.1 |
| 20260830124546 | 12 | 226 | 4.8 | 8.0 | 0.00 | 0.05 | 0.00 | 87 | 1019.1 |
| 20260830123738 | 12 | 212 | 4.8 | 8.0 | 0.00 | 0.13 | 0.00 | 87 | 1019.1 |
| 20260830123237 | 12 | 237 | 4.8 | 8.0 | 0.00 | 0.15 | 0.00 | 86 | 1019.1 |
| 20260830123052 | 12 | 228 | 3.2 | 8.0 | 0.00 | 0.15 | 0.00 | 86 | 1019.1 |
| 20260830122320 | 12 | 233 | 1.6 | 6.4 | 0.00 | 0.18 | 0.00 | 86 | 1019.1 |
| 20260830121527 | 12 | 187 | 3.2 | 6.4 | 0.00 | 0.20 | 0.00 | 86 | 1019.1 |
| 20260830120735 | 12 | 229 | 3.2 | 6.4 | 0.00 | 0.20 | 0.00 | 87 | 1019.1 |
| 20260830120236 | 12 | 186 | 3.2 | 6.4 | 0.00 | 0.20 | 0.00 | 87 | 1019.1 |
| 20260830115731 | 12 | 187 | 4.8 | 8.0 | 0.00 | 0.25 | 0.00 | 87 | 1019.1 |
| 20260830115234 | 12 | 229 | 3.2 | 8.0 | 0.00 | 0.28 | 0.00 | 87 | 1019.1 |
| 20260830114730 | 12 | 218 | 3.2 | 6.4 | 0.00 | 0.28 | 0.00 | 87 | 1019.1 |
| 20260830114230 | 12 | 222 | 3.2 | 8.0 | 0.00 | 0.28 | 0.00 | 87 | 1019.1 |
| 20260830113724 | 12 | 223 | 4.8 | 9.7 | 0.00 | 0.28 | 0.00 | 87 | 1019.1 |
| 20260830113222 | 12 | 211 | 6.4 | 11.3 | 0.00 | 0.28 | 0.00 | 87 | 1019.1 |
| 20260830112714 | 12 | 212 | 6.4 | 11.3 | 0.00 | 0.28 | 0.00 | 87 | 1019.1 |
| 20260830112213 | 12 | 199 | 6.4 | 11.3 | 0.00 | 0.28 | 0.00 | 87 | 1019.0 |
| 20260830111709 | 12 | 208 | 4.8 | 11.3 | 0.00 | 0.28 | 0.00 | 87 | 1019.0 |
| 20260830111213 | 12 | 225 | 4.8 | 9.7 | 0.00 | 0.28 | 0.00 | 86 | 1019.0 |
| 20260830110707 | 12 | 185 | 4.8 | 9.7 | 0.00 | 0.28 | 0.00 | 86 | 1019.0 |
| 20260830110503 | 12 | 217 | 4.8 | 8.0 | 0.00 | 0.28 | 0.00 | 86 | 1019.0 |
| 20260830105707 | 12 | 208 | 4.8 | 8.0 | 0.00 | 0.28 | 0.00 | 86 | 1019.0 |
| 20260830105207 | 12 | 174 | 4.8 | 8.0 | 0.00 | 0.28 | 0.00 | 85 | 1019.0 |
| 20260830104703 | 12 | 165 | 3.2 | 6.4 | 0.00 | 0.28 | 0.00 | 85 | 1019.0 |
| 20260830104207 | 12 | 164 | 3.2 | 6.4 | 0.00 | 0.28 | 0.00 | 85 | 1019.0 |
| 20260830103707 | 12 | 161 | 3.2 | 6.4 | 0.00 | 0.28 | 0.00 | 86 | 1018.9 |
| 20260830103209 | 12 | 208 | 4.8 | 9.7 | 0.00 | 0.28 | 0.00 | 86 | 1018.9 |
| 20260830102711 | 12 | 164 | 6.4 | 9.7 | 0.00 | 0.28 | 0.00 | 86 | 1018.9 |
| 20260830102202 | 12 | 204 | 6.4 | 14.5 | 0.00 | 0.28 | 0.00 | 86 | 1018.8 |
| 20260830101704 | 12 | 222 | 8.0 | 14.5 | 0.00 | 0.28 | 0.00 | 85 | 1018.8 |
| 20260830101514 | 12 | 201 | 6.4 | 9.7 | 0.00 | 0.28 | 0.00 | 86 | 1018.8 |
| 20260830100702 | 12 | 209 | 4.8 | 11.3 | 0.00 | 0.28 | 0.00 | 85 | 1018.7 |
| 20260830100204 | 12 | 206 | 4.8 | 11.3 | 0.00 | 0.28 | 0.00 | 85 | 1018.7 |
| 20260830095704 | 12 | 222 | 4.8 | 8.0 | 0.00 | 0.28 | 0.00 | 85 | 1018.7 |
| 20260830095203 | 12 | 192 | 3.2 | 6.4 | 0.00 | 0.28 | 0.00 | 85 | 1018.7 |
| 20260830094715 | 12 | 160 | 3.2 | 6.4 | 0.00 | 0.28 | 0.00 | 85 | 1018.7 |
| 20260830094158 | 12 | 234 | 3.2 | 6.4 | 0.00 | 0.28 | 0.00 | 85 | 1018.7 |
| 20260830093659 | 12 | 215 | 3.2 | 6.4 | 0.00 | 0.28 | 0.00 | 85 | 1018.7 |
| 20260830093200 | 12 | 199 | 3.2 | 8.0 | 0.00 | 0.28 | 0.00 | 85 | 1018.7 |
| 20260830092659 | 12 | 222 | 4.8 | 9.7 | 0.00 | 0.28 | 0.00 | 85 | 1018.7 |
| 20260830092156 | 12 | 193 | 4.8 | 9.7 | 0.00 | 0.28 | 0.00 | 84 | 1018.8 |
| 20260830091655 | 12 | 169 | 4.8 | 9.7 | 0.00 | 0.28 | 0.00 | 84 | 1018.8 |
| 20260830091201 | 12 | 198 | 4.8 | 9.7 | 0.00 | 0.28 | 0.00 | 84 | 1018.8 |
| 20260830090653 | 12 | 171 | 3.2 | 6.4 | 0.00 | 0.28 | 0.00 | 83 | 1018.7 |
| 20260830090449 | 12 | 197 | 4.8 | 9.7 | 0.00 | 0.28 | 0.00 | 83 | 1018.7 |
| 20260830085647 | 12 | 168 | 6.4 | 9.7 | 0.00 | 0.28 | 0.00 | 83 | 1018.7 |
| 20260830085436 | 12 | 210 | 4.8 | 9.7 | 0.00 | 0.28 | 0.00 | 83 | 1018.7 |
| 20260830084950 | 12 | 185 | 4.8 | 9.7 | 0.00 | 0.28 | 0.00 | 82 | 1018.7 |
| 20260830084139 | 12 | 164 | 4.8 | 9.7 | 0.00 | 0.28 | 0.00 | 83 | 1018.8 |
| 20260830083640 | 13 | 188 | 4.8 | 8.0 | 0.00 | 0.28 | 0.00 | 83 | 1018.8 |
| 20260830083141 | 13 | 214 | 4.8 | 8.0 | 0.00 | 0.28 | 0.00 | 83 | 1018.8 |
| 20260830082639 | 12 | 178 | 4.8 | 8.0 | 0.00 | 0.28 | 0.00 | 82 | 1018.9 |
| 20260830082135 | 12 | 204 | 4.8 | 8.0 | 0.00 | 0.28 | 0.00 | 82 | 1018.9 |
| 20260830081924 | 12 | 177 | 3.2 | 8.0 | 0.00 | 0.28 | 0.00 | 82 | 1018.9 |
| 20260830081131 | 12 | 179 | 1.6 | 4.8 | 0.00 | 0.28 | 0.00 | 82 | 1018.8 |
| 20260830080924 | 12 | 198 | 1.6 | 3.2 | 0.00 | 0.28 | 0.00 | 82 | 1018.8 |
| 20260830080118 | 13 | 176 | 1.6 | 3.2 | 0.00 | 0.28 | 0.00 | 82 | 1018.8 |
| 20260830075615 | 13 | 192 | 1.6 | 4.8 | 0.00 | 0.28 | 0.00 | 82 | 1018.8 |
| 20260830075406 | 13 | 186 | 3.2 | 6.4 | 0.00 | 0.28 | 0.00 | 82 | 1018.8 |
| 20260830074606 | 13 | 238 | 3.2 | 8.0 | 0.00 | 0.28 | 0.00 | 82 | 1018.8 |
| 20260830074103 | 13 | 233 | 3.2 | 8.0 | 0.00 | 0.28 | 0.00 | 82 | 1018.7 |
| 20260830073604 | 13 | 257 | 3.2 | 4.8 | 0.00 | 0.28 | 0.00 | 81 | 1018.7 |
| 20260830073105 | 13 | 248 | 3.2 | 8.0 | 0.00 | 0.28 | 0.00 | 81 | 1018.7 |
| 20260830072603 | 13 | 173 | 3.2 | 8.0 | 0.00 | 0.28 | 0.00 | 80 | 1018.6 |
| 20260830072412 | 13 | 232 | 4.8 | 9.7 | 0.00 | 0.28 | 0.00 | 80 | 1018.6 |
| 20260830071601 | 13 | 187 | 4.8 | 9.7 | 0.00 | 0.28 | 0.00 | 79 | 1018.6 |
| 20260830071103 | 13 | 157 | 4.8 | 8.0 | 0.00 | 0.28 | 0.00 | 79 | 1018.6 |
| 20260830070551 | 13 | 177 | 4.8 | 8.0 | 0.00 | 0.28 | 0.00 | 79 | 1018.6 |
| 20260830070049 | 13 | 145 | 4.8 | 8.0 | 0.00 | 0.28 | 0.00 | 79 | 1018.6 |
| 20260830065541 | 13 | 182 | 4.8 | 9.7 | 0.00 | 0.28 | 0.28 | 79 | 1018.7 |
| 20260830065041 | 13 | 214 | 3.2 | 9.7 | 0.00 | 0.28 | 0.28 | 78 | 1018.7 |
| 20260830064541 | 13 | 226 | 1.6 | 4.8 | 0.00 | 0.28 | 0.28 | 78 | 1018.7 |
| 20260830064040 | 13 | 220 | 3.2 | 6.4 | 0.00 | 0.28 | 0.28 | 77 | 1018.6 |
| 20260830063536 | 13 | 192 | 4.8 | 16.1 | 0.00 | 0.28 | 0.28 | 77 | 1018.6 |
| 20260830063033 | 13 | 188 | 6.4 | 16.1 | 0.00 | 0.28 | 0.28 | 76 | 1018.6 |
| 20260830062532 | 14 | 182 | 4.8 | 11.3 | 0.00 | 0.28 | 0.28 | 76 | 1018.6 |
| 20260830062031 | 14 | 206 | 4.8 | 11.3 | 0.00 | 0.28 | 0.28 | 76 | 1018.6 |
| 20260830061530 | 14 | 197 | 6.4 | 11.3 | 0.00 | 0.28 | 0.28 | 75 | 1018.6 |
| 20260830061118 | 14 | 200 | 6.4 | 12.9 | 0.00 | 0.28 | 0.28 | 76 | 1018.6 |
| 20260830060033 | 14 | 233 | 4.8 | 11.3 | 0.00 | 0.28 | 0.28 | 73 | 1018.6 |
| 20260830055536 | 14 | 219 | 4.8 | 8.0 | 0.00 | 0.28 | 0.28 | 74 | 1018.6 |
| 20260830055034 | 14 | 231 | 4.8 | 9.7 | 0.00 | 0.28 | 0.28 | 75 | 1018.6 |
| 20260830054531 | 14 | 233 | 4.8 | 9.7 | 0.00 | 0.28 | 0.28 | 74 | 1018.6 |
| 20260830054034 | 15 | 266 | 4.8 | 9.7 | 0.00 | 0.28 | 0.28 | 72 | 1018.7 |
| 20260830053528 | 15 | 249 | 4.8 | 11.3 | 0.00 | 0.28 | 0.28 | 72 | 1018.7 |
| 20260830053029 | 15 | 239 | 3.2 | 11.3 | 0.00 | 0.28 | 0.28 | 72 | 1018.7 |
| 20260830052532 | 15 | 229 | 3.2 | 6.4 | 0.00 | 0.28 | 0.28 | 72 | 1018.7 |
| 20260830052429 | 15 | 211 | 4.8 | 9.7 | 0.00 | 0.28 | 0.28 | 72 | 1018.7 |
| 20260830051024 | 15 | 274 | 4.8 | 8.0 | 0.00 | 0.28 | 0.28 | 70 | 1018.6 |
| 20260830050523 | 15 | 244 | 4.8 | 9.7 | 0.00 | 0.28 | 0.28 | 69 | 1018.6 |
| 20260830050020 | 15 | 199 | 4.8 | 11.3 | 0.00 | 0.28 | 0.28 | 69 | 1018.6 |
| 20260830045519 | 15 | 202 | 6.4 | 11.3 | 0.00 | 0.28 | 0.28 | 68 | 1018.6 |
| 20260830045237 | 15 | 207 | 6.4 | 14.5 | 0.00 | 0.28 | 0.28 | 68 | 1018.6 |
| 20260830044513 | 15 | 278 | 6.4 | 14.5 | 0.00 | 0.28 | 0.28 | 67 | 1018.6 |
| 20260830044107 | 15 | 278 | 8.0 | 17.7 | 0.00 | 0.28 | 0.28 | 67 | 1018.5 |
| 20260830043007 | 15 | 278 | 8.0 | 20.9 | 0.00 | 0.28 | 0.28 | 66 | 1018.5 |
| 20260830042506 | 15 | 234 | 6.4 | 17.7 | 0.00 | 0.28 | 0.28 | 66 | 1018.3 |
| 20260830042007 | 15 | 267 | 9.7 | 19.3 | 0.00 | 0.28 | 0.28 | 65 | 1018.3 |
| 20260830041814 | 16 | 281 | 8.0 | 19.3 | 0.00 | 0.28 | 0.28 | 65 | 1018.3 |
| 20260830041005 | 16 | 254 | 8.0 | 19.3 | 0.00 | 0.28 | 0.28 | 65 | 1018.1 |
| 20260830040506 | 16 | 281 | 9.7 | 20.9 | 0.00 | 0.28 | 0.28 | 66 | 1018.1 |
| 20260830040000 | 16 | 277 | 9.7 | 20.9 | 0.00 | 0.28 | 0.28 | 66 | 1018.1 |
| 20260830035500 | 16 | 261 | 8.0 | 16.1 | 0.00 | 0.28 | 0.28 | 65 | 1018.1 |
| 20260830034944 | 16 | 286 | 8.0 | 16.1 | 0.00 | 0.28 | 0.28 | 64 | 1018.1 |
| 20260830034447 | 16 | 265 | 8.0 | 20.9 | 0.00 | 0.28 | 0.28 | 64 | 1018.1 |
| 20260830033946 | 16 | 263 | 9.7 | 20.9 | 0.00 | 0.28 | 0.28 | 64 | 1017.9 |
| 20260830033433 | 16 | 247 | 8.0 | 17.7 | 0.00 | 0.28 | 0.28 | 64 | 1017.9 |
| 20260830032934 | 16 | 258 | 8.0 | 19.3 | 0.00 | 0.28 | 0.28 | 63 | 1017.9 |
| 20260830032433 | 16 | 299 | 9.7 | 19.3 | 0.00 | 0.28 | 0.28 | 62 | 1017.7 |
| 20260830031931 | 16 | 295 | 9.7 | 19.3 | 0.00 | 0.28 | 0.28 | 61 | 1017.7 |
| 20260830031429 | 16 | 233 | 8.0 | 17.7 | 0.00 | 0.28 | 0.28 | 61 | 1017.7 |
| 20260830030929 | 16 | 241 | 6.4 | 17.7 | 0.00 | 0.28 | 0.28 | 62 | 1017.6 |
| 20260830030431 | 17 | 288 | 6.4 | 16.1 | 0.00 | 0.28 | 0.28 | 60 | 1017.6 |
| 20260830025931 | 17 | 272 | 8.0 | 16.1 | 0.00 | 0.28 | 0.28 | 60 | 1017.6 |
| 20260830025911 | 17 | 267 | 9.7 | 20.9 | 0.00 | 0.28 | 0.28 | 60 | 1017.5 |
| 20260830024432 | 17 | 241 | 12.9 | 29.0 | 0.00 | 0.28 | 0.28 | 59 | 1017.5 |
| 20260830023929 | 17 | 252 | 12.9 | 27.4 | 0.00 | 0.28 | 0.28 | 58 | 1017.5 |
| 20260830023429 | 17 | 241 | 12.9 | 22.5 | 0.00 | 0.28 | 0.28 | 58 | 1017.5 |
| 20260830022930 | 17 | 284 | 12.9 | 24.1 | 0.00 | 0.28 | 0.28 | 58 | 1017.5 |
| 20260830022742 | 17 | 236 | 12.9 | 24.1 | 0.00 | 0.28 | 0.28 | 58 | 1017.4 |
| 20260830022247 | 18 | 283 | 12.9 | 24.1 | 0.00 | 0.28 | 0.28 | 56 | 1017.4 |
| 20260830021438 | 18 | 231 | 12.9 | 25.7 | 0.00 | 0.28 | 0.28 | 55 | 1017.4 |
| 20260830020931 | 18 | 288 | 11.3 | 25.7 | 0.00 | 0.28 | 0.28 | 54 | 1017.3 |
| 20260830020426 | 18 | 255 | 11.3 | 22.5 | 0.00 | 0.28 | 0.28 | 54 | 1017.3 |
| 20260830015919 | 18 | 221 | 11.3 | 20.9 | 0.00 | 0.28 | 0.28 | 54 | 1017.3 |
| 20260830015419 | 18 | 238 | 11.3 | 22.5 | 0.00 | 0.28 | 0.28 | 54 | 1017.3 |
| 20260830014917 | 18 | 223 | 9.7 | 22.5 | 0.00 | 0.28 | 0.28 | 54 | 1017.3 |